Accueil
METAR-TAF:

METAR-TAF

Aéroports :

Millinocket Municipal Airport

Millinocket, Maine, États-Unis

latitude: 45-38-52N, longitude: 068-41-31W, altitude: 124 m

Observation

Le bulletin a été fait il y a 35 minutes, à 07:53 UTC
Vent 6 kt de ouest/nord-ouest
Température -5°C
Humidité 73%
Pression 1005 hPa
Visibilité: 16.1 km
Ciel clair

METAR: KMLT 170753Z AUTO 30006KT 10SM CLR M05/M09 A2969 RMK AO2 SLP065 T10501089

Heure: 03:28 (08:28 UTC)


TAF: absent

Observations et prévisions météorologiques de plus de 4000 aéroports (messages METAR et TAF).

Les stations disponibles sont représentées par des disques jaunes et rouges sur la carte.

Passer la souris dessus pour voir le nom de la station.

Cliquer dessus pour voir les observations et prévisions météorologiques.

Pour changer de carte: cliquez sur les boutons verts avec une croix noire pour zoomer, sur le bouton vert avec un tiret pour effectuer un zoom arrière, ou sur les flèches vertes pour les cartes adjacentes.


METAR-TAF: